Regional Weather Roundup
Issued by NWS

Home | Current Version | Previous Version | Text Only | Print | Product List | Glossary Off
Versions: 1 2 3 4 5 6 7 8 9 10 11 12 13 14 15 16 17 18 19 20 21 22 23 24 25 26 27 28 29 30 31 32 33 34 35 36 37 38 39 40 41 42 43 44 45 46 47 48 49 50

538
ASUS44 KJAN 230203
RWRMS

MISSISSIPPI HOURLY WEATHER ROUNDUP
NATIONAL WEATHER SERVICE JACKSON MS
800 PM CST SAT NOV 22 2014

NOTE: "FAIR: INDICATES FEW OR NO CLOUDS BELOW 12,000 FEET WITH NO
SIGNIFICANT WEATHER AND/OR OBSTRUCTIONS TO VISIBILITY.

MSZ001>002-007>008-010>013-018>021-025>028-034>036-230300-
NORTHWEST MISSISSIPPI

CITY           SKY/WX    TMP DP  RH WIND       PRES   REMARKS
CLARKSDALE     FAIR      57  50  77 SE7       30.02F
CLEVELAND      FAIR      60  51  71 E9        30.00F
GREENWOOD      CLOUDY    59  48  67 E6        30.03F
GREENVILLE     MOCLDY    59  50  72 SE10      29.99F
GRENADA        FAIR      55  46  71 CALM      30.05F
OLIVE BRANCH   CLEAR     55  45  67 SE10      30.04F
OXFORD         FAIR      57  46  67 SE8       30.07F
TUNICA         MOCLDY    52  45  76 SE6       30.03F
$$

MSZ003>006-009-014>017-022>024-029>033-037>039-230300-
NORTHEAST MISSISSIPPI

CITY           SKY/WX    TMP DP  RH WIND       PRES   REMARKS
COLUMBUS AFB   MIX PCPN  60  51  70 SE9       30.07F
CORINTH        MOCLDY    54  41  62 CALM      30.07F
GOLDN TRIANGLE CLOUDY    63  50  63 SE9       30.07F
STARKVILLE     CLOUDY    61  50  67 SE7       30.06F
TUPELO         CLOUDY    57  47  69 S3        30.07F
$$

MSZ040-058-230300-
CENTRAL MISSISSIPPI

CITY           SKY/WX    TMP DP  RH WIND       PRES   REMARKS
JACKSON INTL   CLOUDY    61  52  72 SE6       30.02F
JACKSON HAWKNS CLOUDY    61  52  72 SE7       30.03F
MERIDIAN KEY   CLOUDY    63  53  70 SE6       30.07S
MERIDIAN NAS   CLOUDY    63  53  70 SE7       30.08S
RAYMOND        FAIR      57  52  82 MISG      30.02F
VICKSBURG      CLOUDY    61  52  72 SE10      29.98F
$$

MSZ059>079-230300-
SOUTH MISSISSIPPI

CITY           SKY/WX    TMP DP  RH WIND       PRES   REMARKS
BROOKHAVEN     FAIR      61  54  77 E5        30.04S
HATTIESBURG    MOCLDY    62  56  80 SE6       30.05F
MCCOMB         CLOUDY    61  55  81 VRB5      30.01F
NATCHEZ        MOCLDY    63  54  72 E9G18     29.96F
PINE BELT      MOCLDY    63  54  72 E6        30.05F
$$

MSZ080>082-230300-
COASTAL MISSISSIPPI

CITY           SKY/WX    TMP DP  RH WIND       PRES   REMARKS
BAY ST LOUIS   CLOUDY    64  57  77 E8G16     30.03F
BILOXI         CLOUDY    62  61  95 E12       30.03F
PASCAGOULA     CLOUDY    62  59  90 E10       30.05F
GULFPORT       CLOUDY    63  60  90 E12       30.03F
$$



USA.gov is the U.S. government's official web portal to all federal, state and local government web resources and services.